Weather in Shafirkan

Uzbekistan     40°07′07″N   64°30′15″E
temp.,
°C
wind,
m/s
gust,
m/s
humid.,
%
clouds,
%
prec.,
mm/h
press.,
hPa
HPBL,
m
9 may, sun
sun923:00+25n91224100 0.1 1013823
02:00+21n81142100 0.1 1013548
05:00+20nne61049100 0.1 1013485
08:00+21n6747100 0.0 1014553
11:00+25n6639100 0.1 10141206
14:00+28n653247 0.0 10131706
17:00+27nne8827100 0.0 10111401
20:00+26nne71126100 0.0 1011707
10 may, mon
mon1023:00+25ne71225100 0.0 1010727
02:00+24nne8142696 0.0 1009573
05:00+22nne91430100 0.0 1009490
08:00+23ne111334100 0.0 1010708
11:00+26ne12122811 0.0 10101202
14:00+29ne1010255 0.0 10091801
17:00+29nne109256 0.0 10092064
20:00+26ne9122281 0.0 10101413
11 may, tue
tue1123:00+24nne9132091 0.1 1012920
02:00+22nne8152380 0.0 1012582
05:00+19nne412285 0.0 1013295
08:00+23nne610230 0.0 1015573
11:00+27nne89160 0.0 10151683
14:00+30nne88130 0.0 10142293
17:00+30nne78130 0.0 10142527
20:00+26ne48180 0.0 1014211
12 may, wed
wed1223:00+23ne48250 0.0 1015154
02:00+21nne410320 0.0 1014212
05:00+19nne48370 0.0 1015154
08:00+23nne58320 0.0 1015540
11:00+26nne67250 0.0 10151979
14:00+29nne77210 0.0 10132581
17:00+30nne89200 0.0 10122811
20:00+27ne611240 0.0 1012440
13 may, thu
thu1323:00+24nne511285 0.0 1012280
02:00+22ne410350 0.0 1011204
05:00+20nne5113944 0.0 1012267
08:00+22ne8112949 0.0 1013692
11:00+26nne810157 0.0 10131441
14:00+29nne88100 0.0 10121792
17:00+29nne89100 0.0 10112086
20:00+25nne611120 0.0 1012304